owner,sensor,date,latitude,longitude,air_temperature,qcFlag 
COMPS,ioos:station:USF.COMPS:CAM:1,2010-09-01T00:00:00Z,27.7650,-82.6490,30.6,1111122 
COMPS,ioos:station:USF.COMPS:CAM:1,2010-09-01T01:00:00Z,27.7650,-82.6490,29.1,1111122 
COMPS,ioos:station:USF.COMPS:CAM:1,2010-09-01T02:00:00Z,27.7650,-82.6490,28.6,1111122 
COMPS,ioos:station:USF.COMPS:CAM:1,2010-09-01T17:00:00Z,27.7650,-82.6490,30.4,1111122 
COMPS,ioos:station:USF.COMPS:CAM:1,2010-09-01T18:00:00Z,27.7650,-82.6490,31.5,1111122 
COMPS,ioos:station:USF.COMPS:CAM:1,2010-09-01T19:00:00Z,27.7650,-82.6490,32.0,1111122 
COMPS,ioos:station:USF.COMPS:CAM:1,2010-09-01T20:00:00Z,27.7650,-82.6490,32.5,1111122 
COMPS,ioos:station:USF.COMPS:CAM:1,2010-09-01T21:00:00Z,27.7650,-82.6490,32.4,1111122 
COMPS,ioos:station:USF.COMPS:CAM:1,2010-09-01T22:00:00Z,27.7650,-82.6490,32.0,1111122 
COMPS,ioos:station:USF.COMPS:CAM:1,2010-09-01T23:00:00Z,27.7650,-82.6490,31.4,1111122 
COMPS,ioos:station:USF.COMPS:CAM:1,2010-09-02T00:00:00Z,27.7650,-82.6490,30.8,1111122 
COMPS,ioos:station:USF.COMPS:CAM:1,2010-09-02T01:00:00Z,27.7650,-82.6490,29.7,1111122 
COMPS,ioos:station:USF.COMPS:CAM:1,2010-09-02T02:00:00Z,27.7650,-82.6490,29.0,1111122 
COMPS,ioos:station:USF.COMPS:CAM:1,2010-09-02T03:00:00Z,27.7650,-82.6490,28.2,1111122 
COMPS,ioos:station:USF.COMPS:CAM:1,2010-09-02T04:00:00Z,27.7650,-82.6490,27.2,1111122 
COMPS,ioos:station:USF.COMPS:CAM:1,2010-09-02T05:00:00Z,27.7650,-82.6490,26.4,1111122 
COMPS,ioos:station:USF.COMPS:CAM:1,2010-09-02T06:00:00Z,27.7650,-82.6490,26.0,1111122 
COMPS,ioos:station:USF.COMPS:CAM:1,2010-09-02T07:00:00Z,27.7650,-82.6490,25.7,1111122 
COMPS,ioos:station:USF.COMPS:CAM:1,2010-09-02T08:00:00Z,27.7650,-82.6490,25.3,1111122 
COMPS,ioos:station:USF.COMPS:CAM:1,2010-09-02T09:00:00Z,27.7650,-82.6490,25.1,1111122 
COMPS,ioos:station:USF.COMPS:CAM:1,2010-09-02T10:00:00Z,27.7650,-82.6490,24.8,1111122 
COMPS,ioos:station:USF.COMPS:CAM:1,2010-09-02T12:00:00Z,27.7650,-82.6490,25.1,1111122 
COMPS,ioos:station:USF.COMPS:CAM:1,2010-09-02T13:00:00Z,27.7650,-82.6490,26.6,1111122 
COMPS,ioos:station:USF.COMPS:CAM:1,2010-09-02T15:00:00Z,27.7650,-82.6490,28.3,1111122 
COMPS,ioos:station:USF.COMPS:CAM:1,2010-09-02T16:00:00Z,27.7650,-82.6490,28.8,1111122 
COMPS,ioos:station:USF.COMPS:CAM:1,2010-09-02T17:00:00Z,27.7650,-82.6490,29.6,1111122 
COMPS,ioos:station:USF.COMPS:CAM:1,2010-09-02T18:00:00Z,27.7650,-82.6490,29.6,1111122 
COMPS,ioos:station:USF.COMPS:CAM:1,2010-09-02T19:00:00Z,27.7650,-82.6490,29.8,1111122 
COMPS,ioos:station:USF.COMPS:CAM:1,2010-09-02T20:00:00Z,27.7650,-82.6490,31.0,1111122 
COMPS,ioos:station:USF.COMPS:CAM:1,2010-09-02T21:00:00Z,27.7650,-82.6490,29.8,1111122 
COMPS,ioos:station:USF.COMPS:CAM:1,2010-09-02T22:00:00Z,27.7650,-82.6490,29.1,1111122 
COMPS,ioos:station:USF.COMPS:CAM:1,2010-09-02T23:00:00Z,27.7650,-82.6490,29.2,1111122 
COMPS,ioos:station:USF.COMPS:CAM:1,2010-09-03T00:00:00Z,27.7650,-82.6490,28.0,1111122 
COMPS,ioos:station:USF.COMPS:CAM:1,2010-09-03T01:00:00Z,27.7650,-82.6490,27.7,1111122 
COMPS,ioos:station:USF.COMPS:CAM:1,2010-09-03T02:00:00Z,27.7650,-82.6490,26.9,1111122 
COMPS,ioos:station:USF.COMPS:CAM:1,2010-09-03T03:00:00Z,27.7650,-82.6490,25.6,1111122 
COMPS,ioos:station:USF.COMPS:CAM:1,2010-09-03T04:00:00Z,27.7650,-82.6490,25.5,1111122 
COMPS,ioos:station:USF.COMPS:CAM:1,2010-09-03T05:00:00Z,27.7650,-82.6490,25.5,1111122 
COMPS,ioos:station:USF.COMPS:CAM:1,2010-09-03T06:00:00Z,27.7650,-82.6490,24.6,1111122 
COMPS,ioos:station:USF.COMPS:CAM:1,2010-09-03T07:00:00Z,27.7650,-82.6490,23.7,1111122 
COMPS,ioos:station:USF.COMPS:CAM:1,2010-09-03T08:00:00Z,27.7650,-82.6490,23.1,1111122 
COMPS,ioos:station:USF.COMPS:CAM:1,2010-09-03T09:00:00Z,27.7650,-82.6490,23.2,1111122 
COMPS,ioos:station:USF.COMPS:CAM:1,2010-09-03T10:00:00Z,27.7650,-82.6490,23.4,1111122 
COMPS,ioos:station:USF.COMPS:CAM:1,2010-09-03T11:00:00Z,27.7650,-82.6490,23.5,1111122 
COMPS,ioos:station:USF.COMPS:CAM:1,2010-09-03T12:00:00Z,27.7650,-82.6490,25.1,1111122 
COMPS,ioos:station:USF.COMPS:CAM:1,2010-09-03T13:00:00Z,27.7650,-82.6490,27.7,1111122 
COMPS,ioos:station:USF.COMPS:CAM:1,2010-09-03T14:00:00Z,27.7650,-82.6490,28.6,1111122 
COMPS,ioos:station:USF.COMPS:CAM:1,2010-09-03T15:00:00Z,27.7650,-82.6490,29.5,1111122 
COMPS,ioos:station:USF.COMPS:CAM:1,2010-09-03T16:00:00Z,27.7650,-82.6490,29.5,1111122 
COMPS,ioos:station:USF.COMPS:CAM:1,2010-09-03T17:00:00Z,27.7650,-82.6490,29.9,1111122 
COMPS,ioos:station:USF.COMPS:CAM:1,2010-09-03T18:00:00Z,27.7650,-82.6490,30.8,1111122 
COMPS,ioos:station:USF.COMPS:CAM:1,2010-09-03T19:00:00Z,27.7650,-82.6490,31.6,1111122 
COMPS,ioos:station:USF.COMPS:CAM:1,2010-09-03T20:00:00Z,27.7650,-82.6490,31.5,1111122 
COMPS,ioos:station:USF.COMPS:CAM:1,2010-09-03T21:00:00Z,27.7650,-82.6490,31.2,1111122 
COMPS,ioos:station:USF.COMPS:CAM:1,2010-09-03T22:00:00Z,27.7650,-82.6490,31.1,1111122 
COMPS,ioos:station:USF.COMPS:CAM:1,2010-09-03T23:00:00Z,27.7650,-82.6490,30.2,1111122 
COMPS,ioos:station:USF.COMPS:CAM:1,2010-09-04T00:00:00Z,27.7650,-82.6490,28.8,1111122 
COMPS,ioos:station:USF.COMPS:CAM:1,2010-09-04T01:00:00Z,27.7650,-82.6490,28.4,1111122 
COMPS,ioos:station:USF.COMPS:CAM:1,2010-09-04T02:00:00Z,27.7650,-82.6490,28.1,1111122 
COMPS,ioos:station:USF.COMPS:CAM:1,2010-09-04T03:00:00Z,27.7650,-82.6490,27.4,1111122 
COMPS,ioos:station:USF.COMPS:CAM:1,2010-09-04T04:00:00Z,27.7650,-82.6490,27.3,1111122 
COMPS,ioos:station:USF.COMPS:CAM:1,2010-09-04T05:00:00Z,27.7650,-82.6490,27.0,1111122 
COMPS,ioos:station:USF.COMPS:CAM:1,2010-09-04T06:00:00Z,27.7650,-82.6490,26.3,1111122 
COMPS,ioos:station:USF.COMPS:CAM:1,2010-09-04T07:00:00Z,27.7650,-82.6490,25.9,1111122 
COMPS,ioos:station:USF.COMPS:CAM:1,2010-09-04T08:00:00Z,27.7650,-82.6490,26.0,1111122 
COMPS,ioos:station:USF.COMPS:CAM:1,2010-09-04T09:00:00Z,27.7650,-82.6490,25.8,1111122 
COMPS,ioos:station:USF.COMPS:CAM:1,2010-09-04T10:00:00Z,27.7650,-82.6490,25.1,1111122 
COMPS,ioos:station:USF.COMPS:CAM:1,2010-09-04T11:00:00Z,27.7650,-82.6490,25.3,1111122 
COMPS,ioos:station:USF.COMPS:CAM:1,2010-09-04T12:00:00Z,27.7650,-82.6490,26.6,1111122 
COMPS,ioos:station:USF.COMPS:CAM:1,2010-09-04T13:00:00Z,27.7650,-82.6490,29.1,1111122 
COMPS,ioos:station:USF.COMPS:CAM:1,2010-09-04T14:00:00Z,27.7650,-82.6490,30.4,1111122 
COMPS,ioos:station:USF.COMPS:CAM:1,2010-09-04T15:00:00Z,27.7650,-82.6490,29.8,1111122 
COMPS,ioos:station:USF.COMPS:CAM:1,2010-09-04T16:00:00Z,27.7650,-82.6490,29.8,1111122 
COMPS,ioos:station:USF.COMPS:CAM:1,2010-09-04T17:00:00Z,27.7650,-82.6490,31.4,1111122 
COMPS,ioos:station:USF.COMPS:CAM:1,2010-09-04T18:00:00Z,27.7650,-82.6490,30.9,1111122 
COMPS,ioos:station:USF.COMPS:CAM:1,2010-09-04T19:00:00Z,27.7650,-82.6490,31.9,1111122 
COMPS,ioos:station:USF.COMPS:CAM:1,2010-09-04T20:00:00Z,27.7650,-82.6490,32.2,1111122 
COMPS,ioos:station:USF.COMPS:CAM:1,2010-09-04T21:00:00Z,27.7650,-82.6490,31.8,1111122 
COMPS,ioos:station:USF.COMPS:CAM:1,2010-09-04T22:00:00Z,27.7650,-82.6490,31.7,1111122 
COMPS,ioos:station:USF.COMPS:CAM:1,2010-09-04T23:00:00Z,27.7650,-82.6490,31.2,1111122 
COMPS,ioos:station:USF.COMPS:CAM:1,2010-09-05T00:00:00Z,27.7650,-82.6490,29.8,1111122 
COMPS,ioos:station:USF.COMPS:CAM:1,2010-09-05T01:00:00Z,27.7650,-82.6490,29.4,1111122 
COMPS,ioos:station:USF.COMPS:CAM:1,2010-09-05T02:00:00Z,27.7650,-82.6490,28.8,1111122 
COMPS,ioos:station:USF.COMPS:CAM:1,2010-09-05T03:00:00Z,27.7650,-82.6490,28.4,1111122 
COMPS,ioos:station:USF.COMPS:CAM:1,2010-09-05T04:00:00Z,27.7650,-82.6490,28.2,1111122 
COMPS,ioos:station:USF.COMPS:CAM:1,2010-09-05T05:00:00Z,27.7650,-82.6490,27.9,1111122 
COMPS,ioos:station:USF.COMPS:CAM:1,2010-09-05T06:00:00Z,27.7650,-82.6490,27.9,1111122 
COMPS,ioos:station:USF.COMPS:CAM:1,2010-09-05T07:00:00Z,27.7650,-82.6490,27.5,1111122 
COMPS,ioos:station:USF.COMPS:CAM:1,2010-09-05T08:00:00Z,27.7650,-82.6490,26.9,1111122 
COMPS,ioos:station:USF.COMPS:CAM:1,2010-09-05T09:00:00Z,27.7650,-82.6490,26.9,1111122 
COMPS,ioos:station:USF.COMPS:CAM:1,2010-09-05T10:00:00Z,27.7650,-82.6490,26.5,1111122 
COMPS,ioos:station:USF.COMPS:CAM:1,2010-09-05T11:00:00Z,27.7650,-82.6490,26.0,1111122 
COMPS,ioos:station:USF.COMPS:CAM:1,2010-09-05T12:00:00Z,27.7650,-82.6490,27.1,1111122 
COMPS,ioos:station:USF.COMPS:CAM:1,2010-09-05T13:00:00Z,27.7650,-82.6490,29.0,1111122 
COMPS,ioos:station:USF.COMPS:CAM:1,2010-09-05T14:00:00Z,27.7650,-82.6490,29.5,1111122 
COMPS,ioos:station:USF.COMPS:CAM:1,2010-09-05T15:00:00Z,27.7650,-82.6490,29.1,1111122 
COMPS,ioos:station:USF.COMPS:CAM:1,2010-09-05T16:00:00Z,27.7650,-82.6490,29.8,1111122 
COMPS,ioos:station:USF.COMPS:CAM:1,2010-09-05T17:00:00Z,27.7650,-82.6490,31.3,1111122 
COMPS,ioos:station:USF.COMPS:CAM:1,2010-09-05T18:00:00Z,27.7650,-82.6490,30.4,1111122 
COMPS,ioos:station:USF.COMPS:CAM:1,2010-09-05T19:00:00Z,27.7650,-82.6490,30.3,1111122 
COMPS,ioos:station:USF.COMPS:CAM:1,2010-09-05T20:00:00Z,27.7650,-82.6490,27.2,1111122 
COMPS,ioos:station:USF.COMPS:CAM:1,2010-09-05T21:00:00Z,27.7650,-82.6490,25.4,1111122 
COMPS,ioos:station:USF.COMPS:CAM:1,2010-09-05T22:00:00Z,27.7650,-82.6490,26.3,1111122 
COMPS,ioos:station:USF.COMPS:CAM:1,2010-09-06T00:00:00Z,27.7650,-82.6490,26.2,1111122 
COMPS,ioos:station:USF.COMPS:CAM:1,2010-09-06T01:00:00Z,27.7650,-82.6490,26.5,1111122 
COMPS,ioos:station:USF.COMPS:CAM:1,2010-09-06T02:00:00Z,27.7650,-82.6490,26.9,1111122 
COMPS,ioos:station:USF.COMPS:CAM:1,2010-09-06T03:00:00Z,27.7650,-82.6490,27.1,1111122 
COMPS,ioos:station:USF.COMPS:CAM:1,2010-09-06T05:00:00Z,27.7650,-82.6490,26.4,1111122 
COMPS,ioos:station:USF.COMPS:CAM:1,2010-09-06T06:00:00Z,27.7650,-82.6490,26.2,1111122 
COMPS,ioos:station:USF.COMPS:CAM:1,2010-09-06T07:00:00Z,27.7650,-82.6490,25.7,1111122 
COMPS,ioos:station:USF.COMPS:CAM:1,2010-09-06T08:00:00Z,27.7650,-82.6490,25.4,1111122 
COMPS,ioos:station:USF.COMPS:CAM:1,2010-09-06T09:00:00Z,27.7650,-82.6490,25.4,1111122 
COMPS,ioos:station:USF.COMPS:CAM:1,2010-09-06T10:00:00Z,27.7650,-82.6490,25.4,1111122 
COMPS,ioos:station:USF.COMPS:CAM:1,2010-09-06T11:00:00Z,27.7650,-82.6490,25.6,1111122 
COMPS,ioos:station:USF.COMPS:CAM:1,2010-09-06T12:00:00Z,27.7650,-82.6490,25.7,1111122 
COMPS,ioos:station:USF.COMPS:CAM:1,2010-09-06T13:00:00Z,27.7650,-82.6490,26.2,1111122 
COMPS,ioos:station:USF.COMPS:CAM:1,2010-09-06T14:00:00Z,27.7650,-82.6490,27.2,1111122 
COMPS,ioos:station:USF.COMPS:CAM:1,2010-09-06T15:00:00Z,27.7650,-82.6490,27.6,1111122 
COMPS,ioos:station:USF.COMPS:CAM:1,2010-09-06T16:00:00Z,27.7650,-82.6490,27.8,1111122 
COMPS,ioos:station:USF.COMPS:CAM:1,2010-09-06T17:00:00Z,27.7650,-82.6490,28.7,1111122 
COMPS,ioos:station:USF.COMPS:CAM:1,2010-09-06T18:00:00Z,27.7650,-82.6490,30.3,1111122 
COMPS,ioos:station:USF.COMPS:CAM:1,2010-09-06T19:00:00Z,27.7650,-82.6490,30.7,1111122 
COMPS,ioos:station:USF.COMPS:CAM:1,2010-09-06T20:00:00Z,27.7650,-82.6490,30.6,1111122 
COMPS,ioos:station:USF.COMPS:CAM:1,2010-09-06T21:00:00Z,27.7650,-82.6490,31.4,1111122 
COMPS,ioos:station:USF.COMPS:CAM:1,2010-09-06T22:00:00Z,27.7650,-82.6490,32.4,1111122 
COMPS,ioos:station:USF.COMPS:CAM:1,2010-09-06T23:00:00Z,27.7650,-82.6490,28.0,1111122 
COMPS,ioos:station:USF.COMPS:CAM:1,2010-09-07T00:00:00Z,27.7650,-82.6490,27.1,1111122 
COMPS,ioos:station:USF.COMPS:CAM:1,2010-09-07T01:00:00Z,27.7650,-82.6490,26.5,1111122 
COMPS,ioos:station:USF.COMPS:CAM:1,2010-09-07T02:00:00Z,27.7650,-82.6490,25.8,1111122 
COMPS,ioos:station:USF.COMPS:CAM:1,2010-09-07T03:00:00Z,27.7650,-82.6490,25.6,1111122 
COMPS,ioos:station:USF.COMPS:CAM:1,2010-09-07T04:00:00Z,27.7650,-82.6490,25.3,1111122 
COMPS,ioos:station:USF.COMPS:CAM:1,2010-09-07T05:00:00Z,27.7650,-82.6490,25.4,1111122 
COMPS,ioos:station:USF.COMPS:CAM:1,2010-09-07T06:00:00Z,27.7650,-82.6490,25.1,1111122 
COMPS,ioos:station:USF.COMPS:CAM:1,2010-09-07T08:00:00Z,27.7650,-82.6490,25.1,1111122 
COMPS,ioos:station:USF.COMPS:CAM:1,2010-09-07T09:00:00Z,27.7650,-82.6490,25.6,1111122 
COMPS,ioos:station:USF.COMPS:CAM:1,2010-09-07T10:00:00Z,27.7650,-82.6490,25.4,1111122 
COMPS,ioos:station:USF.COMPS:CAM:1,2010-09-07T11:00:00Z,27.7650,-82.6490,25.5,1111122 
COMPS,ioos:station:USF.COMPS:CAM:1,2010-09-07T12:00:00Z,27.7650,-82.6490,25.3,1111122 
COMPS,ioos:station:USF.COMPS:CAM:1,2010-09-07T13:00:00Z,27.7650,-82.6490,25.7,1111122 
COMPS,ioos:station:USF.COMPS:CAM:1,2010-09-07T14:00:00Z,27.7650,-82.6490,26.5,1111122 
COMPS,ioos:station:USF.COMPS:CAM:1,2010-09-07T15:00:00Z,27.7650,-82.6490,27.2,1111122 
COMPS,ioos:station:USF.COMPS:CAM:1,2010-09-07T16:00:00Z,27.7650,-82.6490,28.1,1111122 
COMPS,ioos:station:USF.COMPS:CAM:1,2010-09-07T17:00:00Z,27.7650,-82.6490,29.3,1111122 
COMPS,ioos:station:USF.COMPS:CAM:1,2010-09-07T18:00:00Z,27.7650,-82.6490,30.2,1111122 
COMPS,ioos:station:USF.COMPS:CAM:1,2010-09-07T19:00:00Z,27.7650,-82.6490,30.9,1111122 
COMPS,ioos:station:USF.COMPS:CAM:1,2010-09-07T20:00:00Z,27.7650,-82.6490,31.8,1111122 
COMPS,ioos:station:USF.COMPS:CAM:1,2010-09-07T21:00:00Z,27.7650,-82.6490,32.3,1111122 
COMPS,ioos:station:USF.COMPS:CAM:1,2010-09-07T22:00:00Z,27.7650,-82.6490,31.4,1111122 
COMPS,ioos:station:USF.COMPS:CAM:1,2010-09-07T23:00:00Z,27.7650,-82.6490,29.0,1111122 
COMPS,ioos:station:USF.COMPS:CAM:1,2010-09-08T00:00:00Z,27.7650,-82.6490,28.4,1111122 
COMPS,ioos:station:USF.COMPS:CAM:1,2010-09-08T01:00:00Z,27.7650,-82.6490,27.1,1111122 
COMPS,ioos:station:USF.COMPS:CAM:1,2010-09-08T02:00:00Z,27.7650,-82.6490,27.2,1111122 
COMPS,ioos:station:USF.COMPS:CAM:1,2010-09-08T03:00:00Z,27.7650,-82.6490,27.0,1111122 
COMPS,ioos:station:USF.COMPS:CAM:1,2010-09-08T04:00:00Z,27.7650,-82.6490,27.5,1111122 
COMPS,ioos:station:USF.COMPS:CAM:1,2010-09-08T05:00:00Z,27.7650,-82.6490,27.5,1111122 
COMPS,ioos:station:USF.COMPS:CAM:1,2010-09-08T06:00:00Z,27.7650,-82.6490,27.3,1111122 
COMPS,ioos:station:USF.COMPS:CAM:1,2010-09-08T07:00:00Z,27.7650,-82.6490,27.3,1111122 
COMPS,ioos:station:USF.COMPS:CAM:1,2010-09-08T09:00:00Z,27.7650,-82.6490,26.9,1111122 
COMPS,ioos:station:USF.COMPS:CAM:1,2010-09-08T10:00:00Z,27.7650,-82.6490,26.6,1111122 
COMPS,ioos:station:USF.COMPS:CAM:1,2010-09-08T11:00:00Z,27.7650,-82.6490,26.4,1111122 
COMPS,ioos:station:USF.COMPS:CAM:1,2010-09-08T12:00:00Z,27.7650,-82.6490,26.6,1111122 
COMPS,ioos:station:USF.COMPS:CAM:1,2010-09-08T19:00:00Z,27.7650,-82.6490,32.4,1111122 
COMPS,ioos:station:USF.COMPS:CAM:1,2010-09-08T20:00:00Z,27.7650,-82.6490,32.2,1111122 
COMPS,ioos:station:USF.COMPS:CAM:1,2010-09-08T21:00:00Z,27.7650,-82.6490,29.9,1111122 
COMPS,ioos:station:USF.COMPS:CAM:1,2010-09-08T22:00:00Z,27.7650,-82.6490,27.0,1111122 
COMPS,ioos:station:USF.COMPS:CAM:1,2010-09-08T23:00:00Z,27.7650,-82.6490,27.5,1111122 
COMPS,ioos:station:USF.COMPS:CAM:1,2010-09-09T00:00:00Z,27.7650,-82.6490,27.6,1111122 
COMPS,ioos:station:USF.COMPS:CAM:1,2010-09-09T01:00:00Z,27.7650,-82.6490,28.1,1111122 
COMPS,ioos:station:USF.COMPS:CAM:1,2010-09-09T02:00:00Z,27.7650,-82.6490,28.0,1111122 
COMPS,ioos:station:USF.COMPS:CAM:1,2010-09-09T03:00:00Z,27.7650,-82.6490,27.6,1111122 
COMPS,ioos:station:USF.COMPS:CAM:1,2010-09-09T04:00:00Z,27.7650,-82.6490,27.8,1111122 
COMPS,ioos:station:USF.COMPS:CAM:1,2010-09-09T05:00:00Z,27.7650,-82.6490,27.7,1111122 
COMPS,ioos:station:USF.COMPS:CAM:1,2010-09-09T06:00:00Z,27.7650,-82.6490,27.7,1111122 
COMPS,ioos:station:USF.COMPS:CAM:1,2010-09-09T07:00:00Z,27.7650,-82.6490,27.5,1111122 
COMPS,ioos:station:USF.COMPS:CAM:1,2010-09-09T08:00:00Z,27.7650,-82.6490,27.1,1111122 
COMPS,ioos:station:USF.COMPS:CAM:1,2010-09-09T09:00:00Z,27.7650,-82.6490,26.8,1111122 
COMPS,ioos:station:USF.COMPS:CAM:1,2010-09-09T10:00:00Z,27.7650,-82.6490,26.8,1111122 
COMPS,ioos:station:USF.COMPS:CAM:1,2010-09-09T11:00:00Z,27.7650,-82.6490,26.8,1111122 
COMPS,ioos:station:USF.COMPS:CAM:1,2010-09-09T12:00:00Z,27.7650,-82.6490,27.3,1111122 
COMPS,ioos:station:USF.COMPS:CAM:1,2010-09-09T13:00:00Z,27.7650,-82.6490,27.8,1111122 
COMPS,ioos:station:USF.COMPS:CAM:1,2010-09-09T14:00:00Z,27.7650,-82.6490,28.4,1111122 
COMPS,ioos:station:USF.COMPS:CAM:1,2010-09-09T15:00:00Z,27.7650,-82.6490,29.3,1111122 
COMPS,ioos:station:USF.COMPS:CAM:1,2010-09-09T16:00:00Z,27.7650,-82.6490,29.9,1111122 
COMPS,ioos:station:USF.COMPS:CAM:1,2010-09-09T17:00:00Z,27.7650,-82.6490,31.2,1111122 
COMPS,ioos:station:USF.COMPS:CAM:1,2010-09-09T18:00:00Z,27.7650,-82.6490,32.2,1111122 
COMPS,ioos:station:USF.COMPS:CAM:1,2010-09-09T19:00:00Z,27.7650,-82.6490,33.2,1111122 
COMPS,ioos:station:USF.COMPS:CAM:1,2010-09-09T20:00:00Z,27.7650,-82.6490,31.4,1111122 
COMPS,ioos:station:USF.COMPS:CAM:1,2010-09-09T21:00:00Z,27.7650,-82.6490,31.0,1111122 
COMPS,ioos:station:USF.COMPS:CAM:1,2010-09-09T22:00:00Z,27.7650,-82.6490,30.5,1111122 
COMPS,ioos:station:USF.COMPS:CAM:1,2010-09-09T23:00:00Z,27.7650,-82.6490,30.3,1111122 
COMPS,ioos:station:USF.COMPS:CAM:1,2010-09-10T00:00:00Z,27.7650,-82.6490,29.7,1111122 
COMPS,ioos:station:USF.COMPS:CAM:1,2010-09-10T01:00:00Z,27.7650,-82.6490,29.2,1111122 
COMPS,ioos:station:USF.COMPS:CAM:1,2010-09-10T02:00:00Z,27.7650,-82.6490,29.0,1111122 
COMPS,ioos:station:USF.COMPS:CAM:1,2010-09-10T03:00:00Z,27.7650,-82.6490,28.9,1111122 
COMPS,ioos:station:USF.COMPS:CAM:1,2010-09-10T04:00:00Z,27.7650,-82.6490,28.3,1111122 
COMPS,ioos:station:USF.COMPS:CAM:1,2010-09-10T05:00:00Z,27.7650,-82.6490,28.1,1111122 
COMPS,ioos:station:USF.COMPS:CAM:1,2010-09-10T06:00:00Z,27.7650,-82.6490,28.0,1111122 
COMPS,ioos:station:USF.COMPS:CAM:1,2010-09-10T07:00:00Z,27.7650,-82.6490,27.9,1111122 
COMPS,ioos:station:USF.COMPS:CAM:1,2010-09-10T08:00:00Z,27.7650,-82.6490,27.5,1111122 
COMPS,ioos:station:USF.COMPS:CAM:1,2010-09-10T09:00:00Z,27.7650,-82.6490,27.3,1111122 
COMPS,ioos:station:USF.COMPS:CAM:1,2010-09-11T13:00:00Z,27.7650,-82.6490,27.9,1111122 
COMPS,ioos:station:USF.COMPS:CAM:1,2010-09-11T14:00:00Z,27.7650,-82.6490,30.0,1111122 
COMPS,ioos:station:USF.COMPS:CAM:1,2010-09-11T15:00:00Z,27.7650,-82.6490,31.0,1111122 
COMPS,ioos:station:USF.COMPS:CAM:1,2010-09-11T16:00:00Z,27.7650,-82.6490,30.8,1111122 
COMPS,ioos:station:USF.COMPS:CAM:1,2010-09-11T17:00:00Z,27.7650,-82.6490,31.5,1111122 
COMPS,ioos:station:USF.COMPS:CAM:1,2010-09-11T18:00:00Z,27.7650,-82.6490,32.5,1111122 
COMPS,ioos:station:USF.COMPS:CAM:1,2010-09-11T19:00:00Z,27.7650,-82.6490,32.4,1111122 
COMPS,ioos:station:USF.COMPS:CAM:1,2010-09-11T20:00:00Z,27.7650,-82.6490,33.2,1111122 
COMPS,ioos:station:USF.COMPS:CAM:1,2010-09-11T21:00:00Z,27.7650,-82.6490,30.6,1111122 
COMPS,ioos:station:USF.COMPS:CAM:1,2010-09-15T15:00:00Z,27.7650,-82.6490,28.4,1111122 
COMPS,ioos:station:USF.COMPS:CAM:1,2010-09-15T16:00:00Z,27.7650,-82.6490,29.1,1111122 
COMPS,ioos:station:USF.COMPS:CAM:1,2010-09-15T17:00:00Z,27.7650,-82.6490,30.3,1111122 
COMPS,ioos:station:USF.COMPS:CAM:1,2010-09-15T18:00:00Z,27.7650,-82.6490,31.4,1111122 
COMPS,ioos:station:USF.COMPS:CAM:1,2010-09-15T19:00:00Z,27.7650,-82.6490,31.9,1111122 
COMPS,ioos:station:USF.COMPS:CAM:1,2010-09-15T20:00:00Z,27.7650,-82.6490,32.5,1111122 
COMPS,ioos:station:USF.COMPS:CAM:1,2010-09-15T21:00:00Z,27.7650,-82.6490,33.0,1111122 
COMPS,ioos:station:USF.COMPS:CAM:1,2010-09-15T22:00:00Z,27.7650,-82.6490,33.1,1111122 
COMPS,ioos:station:USF.COMPS:CAM:1,2010-09-15T23:00:00Z,27.7650,-82.6490,32.2,1111122 
COMPS,ioos:station:USF.COMPS:CAM:1,2010-09-16T00:00:00Z,27.7650,-82.6490,30.7,1111122 
COMPS,ioos:station:USF.COMPS:CAM:1,2010-09-16T01:00:00Z,27.7650,-82.6490,29.6,1111122 
COMPS,ioos:station:USF.COMPS:CAM:1,2010-09-16T02:00:00Z,27.7650,-82.6490,28.6,1111122 
COMPS,ioos:station:USF.COMPS:CAM:1,2010-09-16T03:00:00Z,27.7650,-82.6490,27.9,1111122 
COMPS,ioos:station:USF.COMPS:CAM:1,2010-09-16T04:00:00Z,27.7650,-82.6490,27.4,1111122 
COMPS,ioos:station:USF.COMPS:CAM:1,2010-09-16T05:00:00Z,27.7650,-82.6490,27.0,1111122 
COMPS,ioos:station:USF.COMPS:CAM:1,2010-09-16T06:00:00Z,27.7650,-82.6490,26.9,1111122 
COMPS,ioos:station:USF.COMPS:CAM:1,2010-09-16T07:00:00Z,27.7650,-82.6490,26.8,1111122 
COMPS,ioos:station:USF.COMPS:CAM:1,2010-09-16T08:00:00Z,27.7650,-82.6490,26.9,1111122 
COMPS,ioos:station:USF.COMPS:CAM:1,2010-09-16T09:00:00Z,27.7650,-82.6490,26.9,1111122 
COMPS,ioos:station:USF.COMPS:CAM:1,2010-09-16T10:00:00Z,27.7650,-82.6490,26.8,1111122 
COMPS,ioos:station:USF.COMPS:CAM:1,2010-09-16T11:00:00Z,27.7650,-82.6490,26.6,1111122 
COMPS,ioos:station:USF.COMPS:CAM:1,2010-09-16T12:00:00Z,27.7650,-82.6490,26.6,1111122 
COMPS,ioos:station:USF.COMPS:CAM:1,2010-09-16T13:00:00Z,27.7650,-82.6490,27.2,1111122 
COMPS,ioos:station:USF.COMPS:CAM:1,2010-09-16T14:00:00Z,27.7650,-82.6490,28.3,1111122 
COMPS,ioos:station:USF.COMPS:CAM:1,2010-09-16T15:00:00Z,27.7650,-82.6490,29.3,1111122 
COMPS,ioos:station:USF.COMPS:CAM:1,2010-09-16T16:00:00Z,27.7650,-82.6490,30.3,1111122 
COMPS,ioos:station:USF.COMPS:CAM:1,2010-09-16T17:00:00Z,27.7650,-82.6490,31.4,1111122 
COMPS,ioos:station:USF.COMPS:CAM:1,2010-09-16T18:00:00Z,27.7650,-82.6490,31.9,1111122 
COMPS,ioos:station:USF.COMPS:CAM:1,2010-09-16T19:00:00Z,27.7650,-82.6490,32.4,1111122 
COMPS,ioos:station:USF.COMPS:CAM:1,2010-09-16T20:00:00Z,27.7650,-82.6490,32.8,1111122 
COMPS,ioos:station:USF.COMPS:CAM:1,2010-09-16T21:00:00Z,27.7650,-82.6490,33.1,1111122 
COMPS,ioos:station:USF.COMPS:CAM:1,2010-09-16T22:00:00Z,27.7650,-82.6490,32.8,1111122 
COMPS,ioos:station:USF.COMPS:CAM:1,2010-09-16T23:00:00Z,27.7650,-82.6490,32.3,1111122 
COMPS,ioos:station:USF.COMPS:CAM:1,2010-09-17T00:00:00Z,27.7650,-82.6490,31.6,1111122 
COMPS,ioos:station:USF.COMPS:CAM:1,2010-09-17T01:00:00Z,27.7650,-82.6490,28.1,1111122 
COMPS,ioos:station:USF.COMPS:CAM:1,2010-09-17T02:00:00Z,27.7650,-82.6490,28.7,1111122 
COMPS,ioos:station:USF.COMPS:CAM:1,2010-09-17T03:00:00Z,27.7650,-82.6490,28.6,1111122 
COMPS,ioos:station:USF.COMPS:CAM:1,2010-09-17T04:00:00Z,27.7650,-82.6490,28.1,1111122 
COMPS,ioos:station:USF.COMPS:CAM:1,2010-09-17T05:00:00Z,27.7650,-82.6490,28.0,1111122 
COMPS,ioos:station:USF.COMPS:CAM:1,2010-09-17T06:00:00Z,27.7650,-82.6490,27.7,1111122 
COMPS,ioos:station:USF.COMPS:CAM:1,2010-09-17T07:00:00Z,27.7650,-82.6490,27.2,1111122 
COMPS,ioos:station:USF.COMPS:CAM:1,2010-09-17T08:00:00Z,27.7650,-82.6490,27.1,1111122 
COMPS,ioos:station:USF.COMPS:CAM:1,2010-09-17T09:00:00Z,27.7650,-82.6490,27.0,1111122 
COMPS,ioos:station:USF.COMPS:CAM:1,2010-09-17T10:00:00Z,27.7650,-82.6490,26.9,1111122 
COMPS,ioos:station:USF.COMPS:CAM:1,2010-09-17T11:00:00Z,27.7650,-82.6490,26.9,1111122 
COMPS,ioos:station:USF.COMPS:CAM:1,2010-09-17T12:00:00Z,27.7650,-82.6490,27.0,1111122 
COMPS,ioos:station:USF.COMPS:CAM:1,2010-09-17T13:00:00Z,27.7650,-82.6490,27.5,1111122 
COMPS,ioos:station:USF.COMPS:CAM:1,2010-09-17T14:00:00Z,27.7650,-82.6490,28.1,1111122 
COMPS,ioos:station:USF.COMPS:CAM:1,2010-09-17T15:00:00Z,27.7650,-82.6490,29.1,1111122 
COMPS,ioos:station:USF.COMPS:CAM:1,2010-09-17T16:00:00Z,27.7650,-82.6490,29.8,1111122 
COMPS,ioos:station:USF.COMPS:CAM:1,2010-09-17T17:00:00Z,27.7650,-82.6490,30.6,1111122 
COMPS,ioos:station:USF.COMPS:CAM:1,2010-09-17T18:00:00Z,27.7650,-82.6490,31.2,1111122 
COMPS,ioos:station:USF.COMPS:CAM:1,2010-09-17T19:00:00Z,27.7650,-82.6490,32.0,1111122 
COMPS,ioos:station:USF.COMPS:CAM:1,2010-09-17T20:00:00Z,27.7650,-82.6490,32.4,1111122 
COMPS,ioos:station:USF.COMPS:CAM:1,2010-09-17T21:00:00Z,27.7650,-82.6490,32.4,1111122 
COMPS,ioos:station:USF.COMPS:CAM:1,2010-09-17T22:00:00Z,27.7650,-82.6490,32.0,1111122 
COMPS,ioos:station:USF.COMPS:CAM:1,2010-09-17T23:00:00Z,27.7650,-82.6490,32.0,1111122 
COMPS,ioos:station:USF.COMPS:CAM:1,2010-09-18T00:00:00Z,27.7650,-82.6490,31.2,1111122 
COMPS,ioos:station:USF.COMPS:CAM:1,2010-09-18T01:00:00Z,27.7650,-82.6490,30.2,1111122 
COMPS,ioos:station:USF.COMPS:CAM:1,2010-09-18T02:00:00Z,27.7650,-82.6490,29.5,1111122 
COMPS,ioos:station:USF.COMPS:CAM:1,2010-09-18T03:00:00Z,27.7650,-82.6490,28.8,1111122 
COMPS,ioos:station:USF.COMPS:CAM:1,2010-09-18T04:00:00Z,27.7650,-82.6490,28.1,1111122 
COMPS,ioos:station:USF.COMPS:CAM:1,2010-09-18T05:00:00Z,27.7650,-82.6490,27.7,1111122 
COMPS,ioos:station:USF.COMPS:CAM:1,2010-09-18T06:00:00Z,27.7650,-82.6490,27.3,1111122 
COMPS,ioos:station:USF.COMPS:CAM:1,2010-09-18T07:00:00Z,27.7650,-82.6490,27.3,1111122 
COMPS,ioos:station:USF.COMPS:CAM:1,2010-09-18T08:00:00Z,27.7650,-82.6490,26.8,1111122 